Location: ????????
(60.4333°N, 46.4710°E)
Time: 03:38:43
(UTC+00:00)

Cosmos 1980 - Pass Details

Date: 25 November 2020
Orbit: 840 x 846 km, 71.0° (Epoch: 19 January)

Event Time Altitude Azimuth Distance (km) Brightness Sun altitude
Rises 14:24:30 0° 195° (SSW) 3,399 7.3 -16.1°
Reaches altitude 10° 14:27:00 10° 190° (S) 2,467 6.4 -16.4°
Maximum altitude 14:32:26 49° 117° (ESE) 1,089 3.9 -17.0°
Enters shadow 14:35:14 27° 58° (ENE) 1,587 4.6 -17.4°
